Theta_e
317 318 316 318 329 333 335 334 334 333 332 333 333 334 340 343 348 363 358 355 350 356 358 350 342 339 342 344 349 348 345 343 336 336 335 336 336 330 328 338 346 348 344 337 342 343 340 334 328
319 315 315 323 331 336 335 334 334 334 333 332 333 334 339 349 353 359 358 353 353 357 358 353 340 338 343 346 349 346 345 344 341 341 339 337 335 327 332 337 345 347 345 337 329 331 331 327 326
318 315 319 325 330 335 336 334 333 333 333 332 333 332 337 349 357 358 358 353 355 357 357 354 338 337 343 346 345 345 345 345 344 344 342 339 331 328 338 341 343 344 343 335 334 333 330 328 328
314 316 318 324 330 331 333 334 332 332 332 331 331 333 332 344 348 357 355 353 356 357 356 354 337 334 337 342 344 343 342 343 344 344 342 338 328 336 338 338 336 341 342 343 340 335 334 332 333
313 317 317 319 325 329 331 331 333 332 332 331 330 333 332 343 357 358 354 354 355 356 355 352 336 332 334 336 338 336 336 338 341 343 340 332 331 337 337 335 332 340 339 341 337 335 334 336 340
315 316 316 318 320 323 327 327 330 332 333 333 328 331 333 353 354 359 354 353 354 354 355 352 337 332 332 333 333 332 332 333 334 334 334 329 334 336 335 335 331 334 334 336 335 335 337 338 337
315 315 315 316 318 319 321 324 325 327 329 330 328 328 333 344 354 359 354 353 353 352 354 352 346 339 332 333 332 331 330 329 330 331 330 330 333 335 335 335 329 329 329 333 333 334 335 336 338
317 316 316 316 316 317 318 319 320 322 325 327 326 328 330 352 355 357 356 354 353 352 352 351 347 344 343 342 332 332 330 329 330 329 329 330 333 335 334 335 331 327 328 329 332 334 335 336 336
316 317 317 317 316 317 317 316 318 319 319 321 323 326 336 343 352 357 358 356 353 353 351 351 349 345 342 343 342 335 332 331 331 332 330 333 338 340 339 340 338 334 330 328 330 331 331 332 332
317 319 320 319 319 317 317 317 318 318 318 319 321 322 334 342 350 353 359 357 355 353 352 351 351 347 344 343 345 344 344 342 341 340 340 338 339 340 341 341 343 339 338 332 327 326 327 328 335
318 321 322 320 318 317 317 317 317 317 318 319 319 321 328 337 347 350 354 357 356 354 353 352 353 350 346 345 346 344 345 344 344 344 343 341 342 342 341 343 343 345 342 342 336 336 333 331 333
318 319 320 321 319 317 317 317 317 317 318 319 320 321 321 333 339 349 351 355 356 354 353 353 354 353 349 347 348 346 346 346 346 347 347 345 345 344 342 341 340 341 341 340 340 339 337 337 336
319 318 318 318 318 318 317 317 317 317 318 318 318 318 319 321 331 349 351 353 356 354 353 354 354 354 352 349 349 349 348 348 348 348 348 347 346 345 344 343 342 342 340 341 342 339 338 338 337
317 317 317 316 317 317 317 317 317 317 317 317 317 318 319 321 324 348 355 355 356 355 354 355 355 355 354 353 352 351 350 350 349 347 347 348 347 347 346 346 345 342 341 340 339 339 339 339 338
316 316 316 317 316 316 316 317 317 318 317 317 318 318 319 321 322 347 355 356 357 356 356 356 355 355 354 355 356 353 352 352 350 348 349 349 349 349 349 347 345 342 342 342 342 341 342 343 343
318 317 318 317 317 317 316 317 317 318 317 317 318 318 318 320 322 345 355 358 358 356 356 357 355 355 355 355 355 352 352 352 350 349 349 350 350 349 349 347 345 343 343 343 342 342 343 345 345
319 320 319 319 318 317 317 317 318 316 318 318 319 319 318 320 322 341 353 356 359 359 357 357 355 354 354 353 355 352 353 352 350 350 349 350 350 350 349 347 346 346 344 344 345 346 345 344 344
321 320 320 321 319 317 317 317 318 317 317 319 319 319 319 320 322 323 344 346 352 357 360 358 356 354 354 352 352 351 351 351 351 350 350 350 351 351 351 348 347 347 343 344 346 345 345 343 340
320 321 321 320 320 318 318 319 318 318 317 318 319 320 320 320 322 322 323 334 345 354 358 360 358 354 351 350 350 351 351 350 349 349 350 350 349 350 351 349 347 346 344 347 343 341 340 341 339
319 320 321 320 318 317 319 319 319 319 318 318 319 319 320 320 322 323 323 329 342 349 355 357 358 352 349 350 351 349 350 348 348 347 348 348 349 349 349 348 346 346 344 341 339 339 340 340 341
320 321 320 320 319 318 318 320 320 319 319 319 319 319 320 320 321 323 324 325 335 343 349 354 356 350 349 350 348 347 348 348 347 347 347 346 346 347 345 345 344 343 340 341 342 340 340 341 340
321 319 319 317 318 320 318 321 322 320 320 320 320 319 319 320 321 323 323 326 331 337 343 350 353 349 347 346 347 349 348 347 346 346 344 344 343 343 344 344 343 341 340 339 342 342 342 341 339
320 319 319 319 318 319 319 319 322 321 321 321 320 320 320 321 321 322 322 322 327 331 339 348 351 345 342 343 347 348 348 347 346 345 346 345 344 344 343 344 341 342 342 341 342 342 341 338 340
319 320 320 320 319 321 321 320 322 322 321 322 321 320 320 321 321 321 321 322 327 333 342 349 342 342 340 344 346 346 347 345 344 344 343 344 342 342 342 341 341 341 340 339 340 340 339 340 339
319 321 326 325 321 321 320 321 321 322 321 321 321 321 321 322 322 322 322 326 331 342 344 343 340 340 343 345 343 343 344 345 345 345 343 342 342 340 341 340 340 340 339 338 338 337 336 335 333
321 323 324 325 324 322 320 321 321 320 325 330 330 327 325 324 324 323 326 332 341 339 338 338 339 340 340 338 338 340 342 341 339 339 340 338 338 335 335 336 336 334 332 331 330 330 329 328 328
321 325 321 320 321 322 321 322 327 325 329 331 333 332 328 325 325 330 335 339 337 337 336 336 336 336 334 334 333 333 333 332 331 330 330 330 329 329 328 329 328 327 326 326 326 325 326 325 324
321 320 323 320 323 323 321 322 324 329 331 334 338 337 335 335 335 334 334 334 334 335 336 336 335 333 331 330 329 328 327 327 326 325 325 324 324 324 324 324 324 324 323 323 323 322 322 322 321
321 321 319 321 321 324 323 326 330 330 334 336 333 332 330 329 329 329 329 330 332 333 332 331 328 327 326 324 323 322 321 320 319 318 318 319 319 319 319 319 320 320 320 320 320 320 320 319 319
317 321 321 320 323 322 323 337 334 334 335 331 330 328 326 325 326 326 327 329 330 328 327 326 325 324 323 321 319 317 315 314 313 313 313 314 314 315 314 314 314 315 315 315 315 315 315 315 315
Wind_Speed
5 5 5 7 7 7 16 14 9 6 7 5 3 6 6 11 8 5 7 13 23 27 26 31 31 28 25 26 30 31 30 28 27 26 24 22 22 22 23 22 18 15 13 13 12 12 10 10 11
5 5 7 5 9 15 16 18 10 9 5 3 6 5 7 3 4 7 13 15 25 28 28 29 33 30 28 29 32 31 30 28 27 25 23 22 21 22 22 20 17 15 13 13 12 12 12 11 12
5 8 7 6 15 20 17 13 9 10 5 7 4 2 3 3 5 4 6 20 28 27 27 28 34 32 30 31 31 30 28 27 26 24 22 21 22 22 20 18 16 14 13 13 12 12 12 13 14
8 7 5 13 22 23 25 12 2 13 7 5 1 7 1 4 4 1 16 24 28 27 26 30 35 33 32 30 30 29 27 26 25 23 22 22 23 22 20 17 16 15 14 13 12 12 12 13 14
10 5 13 18 28 26 18 17 13 10 5 6 3 6 8 4 2 9 18 24 27 27 26 30 35 34 33 32 31 28 26 25 24 23 22 22 22 20 18 16 15 15 15 14 13 13 13 14 13
7 6 13 20 23 24 24 12 16 16 15 9 8 11 7 8 4 10 17 22 23 25 25 28 33 33 33 33 31 29 26 25 24 23 22 22 22 20 17 15 15 15 15 14 14 13 14 13 11
16 12 19 21 20 22 23 20 19 19 17 14 7 11 2 5 5 10 17 20 22 23 24 26 26 29 31 30 29 27 26 25 24 24 23 23 22 20 17 16 15 15 15 14 14 14 13 12 9
11 11 23 22 18 22 11 15 17 18 20 17 7 8 12 9 7 12 16 19 21 23 24 25 25 25 24 25 27 26 25 25 24 24 23 22 21 19 17 16 15 15 15 14 13 13 13 12 11
13 10 18 24 23 18 6 12 15 13 12 10 16 15 7 4 9 13 16 19 22 23 23 25 25 25 24 23 23 25 24 23 23 22 22 22 17 17 16 16 16 15 14 14 13 14 14 13 12
16 16 24 19 18 11 16 16 9 8 14 17 13 11 3 8 12 14 18 21 25 25 25 25 24 25 24 23 21 21 19 19 18 18 19 17 15 16 15 16 17 15 13 13 14 15 15 14 12
16 25 18 17 17 16 17 17 10 16 16 14 17 15 6 5 11 14 18 22 26 26 25 24 24 24 25 22 22 22 20 19 18 18 18 16 15 15 16 14 15 13 14 12 12 12 12 13 13
19 24 24 20 15 17 19 17 19 19 17 9 12 11 7 7 8 13 17 22 24 27 26 25 26 25 25 23 22 22 20 20 19 19 19 17 16 15 15 15 14 14 14 14 13 13 13 14 14
30 21 19 22 17 19 17 18 17 18 17 16 14 13 14 11 10 12 18 19 23 27 27 27 26 25 25 22 21 21 20 20 20 20 20 19 17 15 15 14 13 13 14 14 14 14 13 15 15
12 25 26 18 22 22 21 19 18 15 17 15 13 15 15 15 12 12 19 22 25 26 27 26 26 25 24 23 20 19 19 18 19 19 19 20 17 15 15 14 13 13 13 13 14 14 14 15 15
16 17 16 25 21 14 15 25 29 22 14 15 16 16 15 14 13 15 22 24 26 26 24 25 25 24 24 23 20 19 18 17 18 18 17 19 17 15 14 13 13 13 12 12 12 13 14 14 13
21 21 22 22 21 24 15 20 4 21 24 24 21 17 16 17 14 18 19 23 23 23 26 24 23 24 23 24 19 19 17 16 16 16 16 18 18 16 15 14 14 13 13 12 12 13 13 13 11
19 23 29 22 20 17 25 15 24 5 18 23 22 20 19 18 16 17 21 21 21 23 23 25 24 24 23 23 18 18 15 15 14 14 14 15 16 17 16 16 15 14 14 13 12 13 13 11 9
25 24 21 22 19 20 21 21 13 12 19 19 18 19 20 20 19 19 20 20 21 21 21 21 22 20 20 19 18 13 13 13 11 12 13 13 14 15 16 17 15 14 13 12 13 13 10 10 13
15 23 22 16 15 20 25 22 21 14 11 20 19 16 18 19 17 20 19 19 18 19 21 22 21 20 21 20 19 14 15 13 12 11 11 11 13 14 17 16 15 15 15 14 16 12 11 15 14
25 19 18 17 18 15 16 21 21 22 21 15 16 18 19 19 20 16 16 17 19 21 21 22 21 20 22 20 17 14 13 12 11 11 11 11 12 13 14 16 14 15 17 16 14 13 15 13 14
26 27 15 14 17 19 15 19 20 21 22 21 21 18 18 19 21 18 15 19 21 20 22 22 22 19 20 17 17 14 13 10 11 9 9 11 10 11 13 14 12 14 15 14 14 14 15 16 11
26 25 18 15 11 13 19 7 23 23 21 24 23 21 21 20 19 19 17 17 19 21 20 18 19 17 17 20 16 16 14 10 9 9 8 8 10 10 10 10 12 12 11 13 14 13 13 11 14
25 22 25 19 16 13 16 10 8 17 21 17 22 21 20 20 21 21 19 19 21 18 16 16 16 15 16 17 12 13 9 6 5 5 6 7 8 9 9 11 13 14 13 12 12 12 11 11 15
20 19 23 19 16 14 19 16 14 16 18 20 20 21 22 20 20 20 20 22 17 16 16 16 18 15 16 14 11 9 8 5 5 3 5 7 8 7 8 9 9 10 10 9 10 9 10 11 9
20 17 9 13 13 16 23 15 10 13 10 13 19 22 22 21 20 16 17 15 17 16 15 16 18 17 15 13 11 9 8 7 4 1 2 3 5 5 5 7 7 7 5 4 4 5 6 7 8
27 24 15 24 22 21 8 18 12 9 8 1 3 5 10 14 15 17 17 15 20 18 18 19 21 20 19 18 16 12 11 9 9 9 7 6 5 3 2 2 3 3 3 3 3 6 7 7 9
28 25 26 14 23 13 13 5 3 8 10 7 10 13 13 14 16 17 16 17 19 21 23 24 25 23 22 20 18 17 17 16 16 15 11 10 8 5 4 3 2 1 1 3 4 7 8 9 11
27 26 22 11 22 19 16 17 9 18 15 12 13 13 12 13 15 16 15 20 22 23 25 24 25 26 25 23 22 21 21 20 17 14 14 10 8 6 4 3 3 3 4 5 7 9 10 12 14
23 20 20 18 13 14 14 11 7 18 17 16 13 12 12 13 14 15 15 23 24 27 28 28 27 27 25 22 19 19 20 19 16 14 14 10 8 6 5 5 4 6 7 8 9 11 14 16 17
21 22 27 11 16 14 8 7 2 13 15 15 14 13 14 15 17 17 16 22 27 29 28 26 24 23 21 18 17 16 17 16 14 14 14 7 7 6 6 7 7 9 10 12 13 15 17 19 21
Wind_Direction
266 256 244 233 241 231 247 235 253 203 202 97 325 285 315 319 348 41 134 155 154 157 161 164 169 170 171 172 169 169 168 166 165 165 164 162 161 160 157 156 153 152 149 150 151 157 158 156 147
223 197 213 240 238 236 233 232 199 234 95 279 299 286 228 113 41 102 135 159 160 160 163 167 171 170 169 167 168 170 170 170 169 167 164 165 163 161 158 159 160 162 159 160 163 166 165 158 150
200 206 235 223 230 238 239 211 231 225 260 264 267 299 336 27 94 132 133 160 160 162 163 168 171 172 170 170 171 172 172 172 172 171 168 167 164 162 162 163 166 168 165 162 161 161 157 152 148
184 194 240 239 231 228 244 252 310 233 214 233 288 265 295 47 332 87 153 159 161 163 164 174 172 173 173 173 173 173 173 174 176 174 172 170 167 166 165 167 169 170 165 160 161 160 157 154 152
200 236 233 227 241 247 234 259 193 225 211 207 283 256 295 102 71 141 156 165 165 164 166 170 173 175 175 174 174 172 173 174 176 176 175 171 169 168 168 169 169 170 165 167 166 164 162 161 161
200 252 234 234 232 236 248 209 259 234 246 254 259 261 275 100 123 150 160 169 170 166 167 169 175 177 176 176 175 173 173 174 177 178 178 174 173 173 174 173 171 172 173 173 171 171 171 172 175
235 214 238 246 248 235 223 239 231 239 241 230 221 266 253 156 118 158 165 169 171 170 168 169 172 177 179 178 176 174 173 174 177 178 178 177 178 179 179 177 177 178 180 183 180 180 182 185 190
229 244 245 238 246 247 228 240 241 242 245 251 246 241 240 104 152 158 168 170 174 173 173 173 173 175 176 179 181 178 176 176 177 179 178 180 181 182 184 185 185 185 188 189 191 192 193 197 203
226 233 234 233 228 242 228 223 227 246 252 222 203 243 49 131 167 160 169 176 177 178 178 177 176 177 179 181 183 182 181 180 180 180 180 180 178 187 196 192 205 194 194 194 198 202 205 211 218
210 227 236 243 238 243 224 218 192 212 216 223 219 230 177 168 183 180 180 181 180 181 180 180 179 181 182 182 183 181 182 182 180 179 182 180 189 193 197 205 212 205 204 205 208 212 216 219 225
218 236 228 236 236 252 245 238 229 234 234 209 211 206 174 203 200 203 198 191 184 183 180 183 181 183 185 185 184 187 188 189 189 187 185 190 195 198 202 207 212 213 220 220 220 224 227 234 238
244 231 241 242 226 239 239 247 243 230 239 228 228 259 246 222 233 216 205 194 186 187 186 184 185 187 189 188 188 191 192 194 195 197 193 195 198 201 205 210 210 214 220 226 226 229 230 232 236
224 247 228 244 237 239 248 243 243 237 242 251 239 243 248 245 240 219 221 199 192 191 190 188 188 189 191 192 194 197 198 198 201 200 201 202 204 206 207 213 216 220 223 227 232 238 241 244 244
226 232 246 230 240 243 248 244 238 234 236 237 238 235 243 244 244 219 207 202 199 193 194 189 191 191 191 195 197 199 203 202 204 206 207 206 209 213 213 215 220 224 230 235 237 239 243 247 252
251 237 233 235 229 229 238 249 243 243 223 224 218 226 236 234 238 218 208 203 197 197 192 193 193 194 194 196 198 200 206 210 209 210 209 211 213 215 220 222 227 227 231 232 237 241 242 246 244
227 233 238 216 221 225 218 251 81 220 221 223 231 234 229 233 227 210 205 204 197 195 195 192 194 197 195 196 198 202 209 214 215 213 212 214 214 216 219 225 229 232 229 228 234 237 239 242 239
216 226 225 230 198 215 208 238 244 174 206 221 227 224 222 218 211 209 204 200 201 202 196 196 196 199 198 196 198 199 204 213 218 215 216 209 213 219 223 230 232 224 228 226 227 231 238 242 258
220 227 245 219 196 214 216 227 228 201 199 212 214 215 211 210 208 199 205 202 203 201 200 199 196 198 194 191 191 191 204 209 208 206 207 211 217 225 229 236 234 226 229 231 231 239 234 246 267
258 238 225 217 225 212 225 230 222 209 214 215 228 212 206 208 206 199 195 201 197 196 197 196 194 192 185 175 182 186 191 193 195 204 212 213 215 223 224 227 229 228 228 226 223 246 272 278 272
235 242 232 243 206 213 218 232 238 222 224 212 213 218 217 212 210 201 194 193 192 194 196 196 191 180 178 177 185 186 190 189 197 202 207 220 223 225 225 231 230 224 217 228 230 244 254 265 255
222 225 225 226 215 221 245 238 226 230 224 223 226 227 214 210 207 201 196 193 197 196 195 194 189 177 178 170 163 167 175 180 191 203 203 208 215 219 219 223 227 238 233 228 235 238 242 254 255
217 215 213 211 194 213 208 251 205 220 215 216 219 221 219 207 206 202 195 195 193 200 196 190 184 166 173 167 171 179 186 193 209 213 210 217 215 216 229 225 224 234 237 243 256 249 232 239 260
228 207 219 215 238 242 184 235 216 201 211 201 209 211 212 210 203 202 196 199 204 199 183 178 169 152 162 169 174 182 198 185 183 196 192 200 207 214 226 228 231 231 241 242 238 234 237 245 253
210 224 203 215 227 223 224 214 212 192 211 205 194 206 206 208 204 204 196 198 191 185 170 156 135 140 148 158 174 179 170 167 170 188 211 202 207 216 218 218 224 229 233 237 239 237 240 242 259
198 196 176 198 209 222 207 216 244 181 180 213 194 202 205 207 207 192 186 181 170 151 140 144 141 138 147 151 151 155 157 143 141 151 196 170 170 192 188 216 217 224 224 223 220 220 232 242 256
190 187 190 183 192 204 239 215 195 151 119 177 165 209 196 207 191 185 175 164 138 147 146 139 138 128 123 113 107 107 117 111 96 75 83 71 84 92 148 161 154 162 173 192 209 234 252 263 271
188 198 211 205 201 207 167 188 120 163 161 146 156 155 146 151 159 148 141 120 126 133 125 125 122 120 117 116 115 108 101 97 83 77 77 76 72 76 66 82 103 155 226 255 266 266 268 272 276
186 199 220 229 186 210 176 194 179 182 166 146 134 101 102 92 93 99 105 113 117 121 126 126 123 119 117 117 113 110 104 93 90 86 79 73 65 52 34 17 341 314 298 290 291 279 282 286 288
182 202 203 216 205 194 172 167 75 163 148 134 119 113 106 100 101 102 106 112 117 118 116 115 113 113 110 110 107 105 100 98 97 95 83 62 46 33 11 351 332 307 301 302 303 297 291 287 286
199 193 206 209 188 218 193 116 353 118 111 118 109 104 100 100 107 107 110 117 117 113 110 106 105 103 102 101 97 95 101 107 100 91 79 55 33 355 336 331 320 310 308 307 304 297 291 288 286